Hourly Data Report for October 20, 2015

All times are specified in Local Standard Time (LST). Add 1 hour to adjust for Daylight Saving Time where and when it is observed.

TORONTO INTL A
ONTARIO

43°40'36.000" N
79°37'50.000" W
173.40 m
6158731
71624
YYZ

Download Data

Hourly Data (October 2015)
Hourly Data Report for October 20, 2015
Temp Definition
°C
Dew Point Temp Definition
°C
Rel Hum Definition
%
Wind Dir Definition
10's deg

Wind Spd Definition
km/h
Visibility Definition
km
Stn Press Definition
kPa
Hmdx Definition


Wind Chill Definition


Weather Definition


TIME
00:00 Legend Double Dagger 14.7 3.6 47 23 23 24.1 99.51     LegendNANA
01:00 Legend Double Dagger 15.0 2.3 42 23 20 24.1 99.51     Cloudy
02:00 Legend Double Dagger 14.1 2.4 45 24 16 24.1 99.54     LegendNANA
03:00 Legend Double Dagger 14.2 1.9 43 23 16 24.1 99.49     LegendNANA
04:00 Legend Double Dagger 13.9 2.9 47 25 21 24.1 99.54     Cloudy
05:00 Legend Double Dagger 13.6 2.9 48 25 14 24.1 99.60     LegendNANA
06:00 Legend Double Dagger 13.3 3.2 50 25 21 24.1 99.66     LegendNANA
07:00 Legend Double Dagger 11.5 6.1 69 25 21 24.1 99.70     Mostly Cloudy
08:00 Legend Double Dagger 12.1 5.1 62 24 19 24.1 99.77     LegendNANA
09:00 Legend Double Dagger 12.9 4.9 58 21 13 24.1 99.78     LegendNANA
10:00 Legend Double Dagger 13.9 4.8 54 23 17 24.1 99.79     Mostly Cloudy
11:00 Legend Double Dagger 15.7 5.1 49 22 15 24.1 99.78     LegendNANA
12:00 Legend Double Dagger 17.4 5.8 46 24 18 24.1 99.76     LegendNANA
13:00 Legend Double Dagger 17.8 5.8 45 24 18 24.1 99.74     Mostly Cloudy
14:00 Legend Double Dagger 17.1 6.4 49 26 29 24.1 99.76     Rain Showers
15:00 Legend Double Dagger 16.0 8.1 59 29 21 24.1 99.77     Rain Showers
16:00 Legend Double Dagger 15.1 9.1 67 29 14 24.1 99.85     Rain Showers
17:00 Legend Double Dagger 14.4 9.5 72 32 13 24.1 99.90     LegendNANA
18:00 Legend Double Dagger 13.9 9.0 72 35 12 24.1 99.97     LegendNANA
19:00 Legend Double Dagger 13.8 9.3 74 31 5 24.1 100.03     Cloudy
20:00 Legend Double Dagger 13.8 9.1 73 36 2 24.1 100.06     LegendNANA
21:00 Legend Double Dagger 13.8 8.9 72 26 5 24.1 100.07     LegendNANA
22:00 Legend Double Dagger 13.2 9.3 77 5 4 24.1 100.08     Cloudy
23:00 Legend Double Dagger 13.2 9.1 76 4 4 24.1 100.11     LegendNANA

Notes on Data Quality.

Legend

  • E = Estimated
  • M = Missing
  • NA = Not Available
  • ‡ = Partner data that is not subject to review by the National Climate Archives
Date modified: